• Currently

    Reported at Covington / Cincinnati, Cincinnati / Northern Kentucky International Airport, KY
    10:52 AM EST SUN SEP 24 2017
  • 81°F27°C
  • Partly Cloudy
    Partly Cloudy
  • Feels Like:82°F28°CDew Point:64°F18°CHumidity:58% Winds:SE 6 mph 10 kph
    Pressure:30.12 in1020 hPaVisibility:10.00 miles16090.00 meters
Time Weather Temp Dew Point
Humidity Winds Visibility Pressure Precipitation
1 hr 24 hr
Sunday, September 24
13:13 13:13 Sunny Sunny 86°F30°C 63°F17°C 46% ESE 5 mphESE 7 kph 10.0 miles16.1 km 30.12 in1020 hPa 0.00 in0.00 mm --
12:53 12:53 Sunny Sunny 86°F30°C 61°F16°C 43% ESE 6 mphESE 9 kph 10.0 miles16.1 km 30.12 in1020 hPa 0.00 in0.00 mm --
12:33 12:33 Sunny Sunny 82°F28°C 63°F17°C 51% SE 5 mphSE 7 kph 10.0 miles16.1 km 30.12 in1020 hPa 0.00 in0.00 mm --
12:13 12:13 Sunny Sunny 82°F28°C 63°F17°C 51% ESE 3 mphESE 6 kph 10.0 miles16.1 km 30.12 in1020 hPa 0.00 in0.00 mm --
11:53 11:53 Sunny Sunny 81°F27°C 63°F17°C 54% SE 3 mphSE 6 kph 10.0 miles16.1 km 30.12 in1020 hPa 0.00 in0.00 mm --
11:33 11:33 Sunny Sunny 79°F26°C 63°F17°C 58% ESE 3 mphESE 6 kph 10.0 miles16.1 km 30.12 in1020 hPa 0.00 in0.00 mm --
11:13 11:13 Sunny Sunny 79°F26°C 61°F16°C 54% ESE 5 mphESE 7 kph 10.0 miles16.1 km 30.12 in1020 hPa 0.00 in0.00 mm --
10:53 10:53 Sunny Sunny 79°F26°C 63°F17°C 58% ENE 3 mphENE 6 kph 10.0 miles16.1 km 30.12 in1020 hPa 0.00 in0.00 mm --
10:33 10:33 Sunny Sunny 77°F25°C 61°F16°C 57% E 5 mphE 7 kph 10.0 miles16.1 km 30.12 in1020 hPa 0.00 in0.00 mm --
10:13 10:13 Sunny Sunny 75°F24°C 61°F16°C 61% E 5 mphE 7 kph 10.0 miles16.1 km 30.12 in1020 hPa 0.00 in0.00 mm --
09:53 09:53 Sunny Sunny 73°F23°C 61°F16°C 65% E 5 mphE 7 kph 10.0 miles16.1 km 30.12 in1020 hPa 0.00 in0.00 mm --
09:32 09:32 Sunny Sunny 72°F22°C 63°F17°C 73% E 6 mphE 9 kph 10.0 miles16.1 km 30.12 in1020 hPa 0.00 in0.00 mm --
09:13 09:13 Sunny Sunny 72°F22°C 63°F17°C 73% E 5 mphE 7 kph 10.0 miles16.1 km 30.12 in1020 hPa 0.00 in0.00 mm --
08:53 08:53 Sunny Sunny 70°F21°C 63°F17°C 78% E 3 mphE 6 kph 10.0 miles16.1 km 30.12 in1020 hPa 0.00 in0.00 mm --
08:33 08:33 Sunny Sunny 66°F19°C 63°F17°C 88% NE 3 mphNE 6 kph 10.0 miles16.1 km 30.12 in1020 hPa 0.00 in0.00 mm --
08:13 08:13 Sunny Sunny 64°F18°C 61°F16°C 88% NE 3 mphNE 6 kph 10.0 miles16.1 km 30.12 in1020 hPa 0.00 in0.00 mm --
07:53 07:53 Sunny Sunny 63°F17°C 59°F15°C 88% CalmCalm 10.0 miles16.1 km 30.12 in1020 hPa 0.00 in0.00 mm --
07:33 07:33 Sunny Sunny 63°F17°C 59°F15°C 88% CalmCalm 10.0 miles16.1 km 30.12 in1020 hPa 0.00 in0.00 mm --
07:13 07:13 Clear Clear 64°F18°C 61°F16°C 88% CalmCalm 10.0 miles16.1 km 30.12 in1020 hPa 0.00 in0.00 mm --
06:53 06:53 Clear Clear 64°F18°C 61°F16°C 88% CalmCalm 10.0 miles16.1 km 30.12 in1020 hPa 0.00 in0.00 mm --
06:33 06:33 Clear Clear 64°F18°C 61°F16°C 88% CalmCalm 10.0 miles16.1 km 30.09 in1019 hPa 0.00 in0.00 mm --
06:13 06:13 Clear Clear 64°F18°C 61°F16°C 88% ENE 3 mphENE 6 kph 10.0 miles16.1 km 30.09 in1019 hPa 0.00 in0.00 mm --
05:53 05:53 Clear Clear 64°F18°C 61°F16°C 88% E 3 mphE 6 kph 10.0 miles16.1 km 30.09 in1019 hPa 0.00 in0.00 mm --
05:33 05:33 Clear Clear 63°F17°C 61°F16°C 94% CalmCalm 10.0 miles16.1 km 30.09 in1019 hPa 0.00 in0.00 mm --
05:13 05:13 Clear Clear 63°F17°C 61°F16°C 94% NE 3 mphNE 6 kph 10.0 miles16.1 km 30.09 in1019 hPa 0.00 in0.00 mm --
04:53 04:53 Clear Clear 63°F17°C 61°F16°C 94% NE 3 mphNE 6 kph 10.0 miles16.1 km 30.09 in1019 hPa 0.00 in0.00 mm --
04:33 04:33 Clear Clear 63°F17°C 61°F16°C 94% NE 3 mphNE 6 kph 10.0 miles16.1 km 30.09 in1019 hPa 0.00 in0.00 mm --
04:13 04:13 Clear Clear 64°F18°C 63°F17°C 94% NNE 3 mphNNE 6 kph 10.0 miles16.1 km 30.09 in1019 hPa 0.00 in0.00 mm --
03:53 03:53 Clear Clear 64°F18°C 61°F16°C 88% NNE 3 mphNNE 6 kph 10.0 miles16.1 km 30.09 in1019 hPa 0.00 in0.00 mm --
03:33 03:33 Clear Clear 64°F18°C 61°F16°C 88% NE 3 mphNE 6 kph 10.0 miles16.1 km 30.09 in1019 hPa 0.00 in0.00 mm --
03:13 03:13 Clear Clear 64°F18°C 63°F17°C 94% CalmCalm 10.0 miles16.1 km 30.09 in1019 hPa 0.00 in0.00 mm --
02:53 02:53 Clear Clear 64°F18°C 63°F17°C 94% CalmCalm 10.0 miles16.1 km 30.09 in1019 hPa 0.00 in0.00 mm --
02:33 02:33 Clear Clear 63°F17°C 61°F16°C 94% CalmCalm 7.0 miles11.3 km 30.09 in1019 hPa 0.00 in0.00 mm --
02:13 02:13 Clear Clear 64°F18°C 63°F17°C 94% CalmCalm 10.0 miles16.1 km 30.09 in1019 hPa 0.00 in0.00 mm --
01:53 01:53 Clear Clear 64°F18°C 63°F17°C 94% CalmCalm 10.0 miles16.1 km 30.09 in1019 hPa 0.00 in0.00 mm --
01:33 01:33 Clear Clear 64°F18°C 63°F17°C 94% CalmCalm 10.0 miles16.1 km 30.09 in1019 hPa 0.00 in0.00 mm --
01:13 01:13 Clear Clear 64°F18°C 63°F17°C 94% CalmCalm 10.0 miles16.1 km 30.09 in1019 hPa 0.00 in0.00 mm --
00:53 00:53 Clear Clear 64°F18°C 63°F17°C 94% NNE 5 mphNNE 7 kph 10.0 miles16.1 km 30.09 in1019 hPa 0.00 in0.00 mm --
00:33 00:33 Clear Clear 66°F19°C 63°F17°C 88% CalmCalm 10.0 miles16.1 km 30.09 in1019 hPa 0.00 in0.00 mm --
00:13 00:13 Clear Clear 66°F19°C 63°F17°C 88% NE 3 mphNE 6 kph 10.0 miles16.1 km 30.09 in1019 hPa 0.00 in0.00 mm --